Weather History for Port Angeles, WA

Change the Weather History Date:

Monday, October 21, 2013

  Actual Average Record
Temperature  
Mean Temperature 46 °F -  
Max Temperature 55 °F 55 °F 63 °F (1999)
Min Temperature 39 °F 41 °F 33 °F (1961)
Degree Days  
Heating Degree Days 19    
Moisture  
Dew Point 45 °F    
Average Humidity 94    
Maximum Humidity 100    
Minimum Humidity 80    
Precipitation  
Precipitation 0.00 in - - ()
Sea Level Pressure  
Sea Level Pressure 30.15 in    
Wind  
Wind Speed 5 mph (ESE)    
Max Wind Speed 9 mph    
Max Gust Speed -    
Visibility 3 miles    
Events Fog    
Averages and records for this station are not official NWS values.
T = Trace of Precipitation, MM = Missing Value Source: NWS Daily Summary

Daily Weather History Graph

Daily Weather History Graph

Search for Another Location

Airport:

Trip Planner

Search our weather history database for the weather conditions in past years. The results will help you decide how hot, cold, wet, or windy it might be!

Date:

Astronomy

Oct. 21, 2013 Rise Set
Actual Time 7:42 AM PDT 6:13 PM PDT
Civil Twilight 7:11 AM PDT 6:45 PM PDT
Nautical Twilight 6:34 AM PDT 7:21 PM PDT
Astronomical Twilight 5:58 AM PDT 7:57 PM PDT
Moon 7:59 PM PDT (10/21) 10:34 AM PDT (10/21)
Length of Visible Light 11h 33m
Length of Day
10h 30m
Waning Gibbous, 92% of the Moon is Illuminated
Oct 21
Waning Gibbous
Oct 26
Last Quarter
Nov 3
New
Nov 9
First Quarter
Nov 17
Full

Hourly Weather History & Observations

Time (PDT) Temp. Windchill Dew Point Humidity Pressure Visibility Wind Dir Wind Speed Gust Speed Precip Events Conditions
12:53 AM 46.0 °F 43.9 °F 45.0 °F 96% 30.18 in 0.5 mi ESE 4.6 mph - N/A Fog Fog
1:04 AM 46.0 °F 43.9 °F 45.0 °F 96% 30.18 in 0.2 mi SE 4.6 mph - N/A Fog Fog
1:12 AM 45.0 °F 41.8 °F 44.1 °F 97% 30.18 in 0.5 mi SE 5.8 mph - N/A Fog Fog
1:53 AM 45.0 °F 42.6 °F 44.1 °F 97% 30.18 in 0.5 mi SSE 4.6 mph - N/A Fog Fog
2:13 AM 45.0 °F 42.6 °F 44.1 °F 97% 30.17 in 0.2 mi SSE 4.6 mph - N/A Fog Fog
2:53 AM 45.0 °F 41.8 °F 44.1 °F 97% 30.18 in 0.2 mi SE 5.8 mph - N/A Fog Fog
3:39 AM 45.0 °F 41.2 °F 44.1 °F 97% 30.18 in 0.5 mi SE 6.9 mph - N/A Fog Fog
3:53 AM 45.0 °F 41.2 °F 44.1 °F 97% 30.18 in 0.5 mi SE 6.9 mph - N/A Fog Fog
4:49 AM 44.6 °F 41.4 °F 44.6 °F 100% 30.17 in 0.2 mi ESE 5.8 mph - N/A Fog Fog
4:53 AM 45.0 °F 41.8 °F 44.1 °F 97% 30.17 in 0.2 mi ESE 5.8 mph - N/A Fog Fog
5:23 AM 45.0 °F 41.8 °F 44.1 °F 97% 30.17 in 0.5 mi SE 5.8 mph - N/A Fog Fog
5:53 AM 44.1 °F 40.8 °F 43.0 °F 96% 30.17 in 0.5 mi SE 5.8 mph - N/A Fog Fog
6:53 AM 44.1 °F 40.8 °F 43.0 °F 96% 30.17 in 0.5 mi SE 5.8 mph - N/A Fog Fog
7:53 AM 44.1 °F 41.5 °F 43.0 °F 96% 30.17 in 0.2 mi SE 4.6 mph - N/A Fog Fog
8:53 AM 45.0 °F 41.8 °F 44.1 °F 97% 30.18 in 0.2 mi SSE 5.8 mph - N/A Fog Fog
9:40 AM 46.0 °F 42.5 °F 45.0 °F 96% 30.18 in 0.5 mi SSE 6.9 mph - N/A Fog Fog
9:53 AM 46.0 °F 42.5 °F 45.0 °F 96% 30.19 in 0.8 mi SSE 6.9 mph - N/A   Overcast
10:06 AM 46.9 °F - 46.0 °F 97% 30.19 in 1.0 mi SE 5.8 mph - N/A   Overcast
10:53 AM 48.0 °F - 46.9 °F 96% 30.19 in 1.2 mi ESE 8.1 mph - N/A   Overcast
11:09 AM 48.0 °F - 46.9 °F 96% 30.18 in 2.5 mi SE 5.8 mph - N/A   Overcast
11:16 AM 48.0 °F - 46.9 °F 96% 30.19 in 6.0 mi SE 5.8 mph - N/A   Overcast
11:53 AM 48.9 °F - 46.9 °F 93% 30.19 in 10.0 mi ESE 5.8 mph - N/A   Overcast
12:53 PM 48.9 °F - 46.9 °F 93% 30.17 in 9.0 mi East 6.9 mph - N/A   Overcast
1:46 PM 52.0 °F - 48.0 °F 86% 30.15 in 10.0 mi East 4.6 mph - N/A   Scattered Clouds
1:53 PM 53.1 °F - 48.0 °F 83% 30.15 in 10.0 mi East 4.6 mph - N/A   Partly Cloudy
2:53 PM 53.1 °F - 46.9 °F 80% 30.13 in 10.0 mi East 6.9 mph - N/A   Clear
3:25 PM 51.1 °F - 46.9 °F 86% 30.13 in 8.0 mi ESE 9.2 mph - N/A   Scattered Clouds
3:33 PM 50.0 °F - 46.9 °F 89% 30.12 in 2.5 mi East 8.1 mph - N/A   Mostly Cloudy
3:48 PM 51.8 °F - 46.4 °F 82% 30.12 in 5.0 mi ESE 8.1 mph - N/A   Mostly Cloudy
3:53 PM 51.1 °F - 46.9 °F 86% 30.13 in 8.0 mi ESE 8.1 mph - N/A   Mostly Cloudy
4:03 PM 51.1 °F - 46.9 °F 86% 30.12 in 10.0 mi East 6.9 mph - N/A   Scattered Clouds
4:24 PM 50.0 °F - 46.9 °F 89% 30.12 in 1.5 mi East 6.9 mph - N/A   Scattered Clouds
4:27 PM 48.9 °F - 46.9 °F 93% 30.12 in 0.8 mi East 6.9 mph - N/A   Mist
4:39 PM 48.9 °F - 46.9 °F 93% 30.12 in 0.5 mi East 6.9 mph - N/A Fog Fog
4:49 PM 48.2 °F - 46.4 °F 93% 30.12 in 0.2 mi East 6.9 mph - N/A Fog Fog
4:53 PM 48.0 °F - 46.9 °F 96% 30.12 in 0.2 mi East 8.1 mph - N/A Fog Fog
5:14 PM 48.0 °F - 46.9 °F 96% 30.11 in 0.2 mi ESE 6.9 mph - N/A Fog Fog
5:53 PM 48.0 °F - 46.0 °F 93% 30.12 in 0.2 mi ESE 6.9 mph - N/A Fog Fog
6:53 PM 46.9 °F - 46.0 °F 97% 30.12 in 0.2 mi East 4.6 mph - N/A Fog Fog
7:53 PM 46.9 °F - 46.0 °F 97% 30.12 in 0.2 mi East 4.6 mph - N/A Fog Fog
8:53 PM 46.0 °F 43.9 °F 45.0 °F 96% 30.12 in 0.2 mi SSE 4.6 mph - N/A Fog Fog
9:24 PM 43.0 °F 41.3 °F 43.0 °F 100% 30.12 in 0.8 mi SE 3.5 mph - N/A   Mist
9:29 PM 43.0 °F - 42.1 °F 97% 30.12 in 2.5 mi Calm Calm - N/A   Mostly Cloudy
9:35 PM 43.0 °F - 42.1 °F 97% 30.12 in 6.0 mi Calm Calm - N/A   Scattered Clouds
9:53 PM 42.1 °F 40.2 °F 41.0 °F 96% 30.13 in 5.0 mi SE 3.5 mph - N/A   Partly Cloudy
10:01 PM 42.1 °F - 41.0 °F 96% 30.13 in 2.5 mi Calm Calm - N/A   Mostly Cloudy
10:11 PM 41.0 °F - 39.9 °F 96% 30.13 in 0.8 mi Calm Calm - N/A   Mist
10:34 PM 42.1 °F 39.2 °F 41.0 °F 96% 30.13 in 2.0 mi SE 4.6 mph - N/A   Mostly Cloudy
10:36 PM 42.1 °F 39.2 °F 41.0 °F 96% 30.13 in 3.0 mi ESE 4.6 mph - N/A   Scattered Clouds
10:53 PM 41.0 °F - 39.9 °F 96% 30.14 in 7.0 mi Calm Calm - N/A   Clear
11:09 PM 41.0 °F - 39.0 °F 93% 30.13 in 1.5 mi Calm Calm - N/A   Clear
11:18 PM 39.9 °F 37.8 °F 39.0 °F 97% 30.13 in 3.0 mi SE 3.5 mph - N/A   Clear
11:53 PM 39.9 °F - 39.0 °F 97% 30.14 in 5.0 mi Calm Calm - N/A   Clear